Weather in Verkhniy Fiagdon

Russia / Republic of North Ossetia — Alania     42°50′03″N   44°18′25″E
temp.,
°C
wind,
m/s
gust,
m/s
humid.,
%
clouds,
%
prec.,
mm/h
press.,
hPa
HPBL,
m
20 september, mon
mon2000:00+4s668023 0.0 1019115
03:00+3s55832 0.0 101972
06:00+3s44853 0.0 101952
09:00+9ssw24595 0.0 1016811
12:00+11sw245875 0.1 10151293
15:00+9w236675 1.3 10161006
18:00+6w118458 0.8 101851
21:00+3ssw22892 0.8 102014
21 september, tue
tue2100:00+3s22840 0.0 102018
03:00+2s33830 0.0 102028
06:00+2s44825 0.0 101939
09:00+9sw335681 0.0 1017637
12:00+12sw345033 0.0 10151421
15:00+11sw455068 0.1 10141304
18:00+6ssw456461 0.1 101661
21:00+4ssw4473100 0.1 101856
22 september, wed
wed2200:00+3s438184 0.0 101842
03:00+3s3386100 0.0 101640
06:00+3s3384100 0.0 101539
09:00+8ssw236695 0.0 1013514
12:00+7sw2382100 1.4 1013587
15:00+4s4596100 10.0 1015275
18:00+4s229597 0.3 1014111
21:00+3s2297100 0.4 101599
23 september, thu
thu2300:00+3s449498 0.1 1014136
03:00+2s449377 0.1 1013118
06:00+3s4592100 0.1 1013146
09:00+4s4590100 1.7 1012266
12:00+3s5694100 11.6 1012252
15:00+6s448962 12.2 1009237
18:00+5s3496100 4.2 101091
21:00+4s559570 8.1 1010149
24 september, fri
fri2400:00+4s679661 0.3 1009119
03:00+4s669547 0.4 100997
06:00+3s569442 0.3 101093
09:00+8s587946 0.5 1009924
12:00+9ssw477248 0.4 10091102
15:00+6s3595100 3.1 1011555
18:00+3ssw3499100 15.4 1014272
21:00+3ssw449699 23.7 1016134